Regional Weather Roundup
Issued by NWS

Home | Current Version | Previous Version | Graphics & Text | Print | Product List | Glossary On
Versions: 1 2 3 4 5 6 7 8 9 10 11 12 13 14 15 16 17 18 19 20 21 22 23 24 25 26 27 28 29 30 31 32 33 34 35 36 37 38 39 40 41 42 43 44 45 46 47 48 49 50
000
ASUS43 KDTX 230110
RWRMI
MICHIGAN HOURLY REGIONAL WEATHER ROUNDUP
NATIONAL WEATHER SERVICE DETROIT/PONTIAC MI
800 PM EST SAT NOV 22 2014

NOTE: "FAIR" INDICATES FEW OR NO CLOUDS BELOW 12,000 FEET WITH NO
SIGNIFICANT WEATHER AND/OR OBSTRUCTION TO VISIBILITY.

MIZ047>049-052>055-059>063-066>070-074>076-081>083-230200-
SOUTHEAST LOWER MICHIGAN

CITY           SKY/WX    TMP DP  RH WIND       PRES   REMARKS
ADRIAN         CLOUDY    46  42  86 SW10      29.96S
ALMA           LGT RAIN  41  41 100 SW7       29.87S
ANN ARBOR      LGT RAIN  46  43  89 SW8       29.94F FOG
BAD AXE        CLOUDY    42  42 100 SW9       29.88S FOG
CARO           CLOUDY    43  41  93 S10       29.88S
DETROIT CITY   CLOUDY    48  42  80 SW12      29.95F
DETROIT        CLOUDY    46  42  86 S10       29.96S
FLINT          LGT RAIN  45  42  89 S8        29.91S FOG
GROSSE ILE     CLOUDY    39  36  87 S9        29.95S WCI  33
HILLSDALE      CLOUDY    49  47  90 SW10G17   29.94R
HOWELL         DRIZZLE   43  43  99 S6        29.91S

CITY           SKY/WX    TMP DP  RH WIND       PRES   REMARKS
JACKSON        CLOUDY    48  44  86 SW13      29.92S
LAMBERTVILLE   CLOUDY    50  41  71 SW7       29.98R
LANSING        LGT RAIN  46  44  93 SW13      29.90F FOG
LAPEER         CLOUDY    44  42  95 SW13      29.91R FOG
MASON          CLOUDY    47  45  90 SW10G20   29.90F
MONROE         CLOUDY    50  43  76 SW14G20   29.95R
MT. CLEMENS    CLOUDY    47  46  97 SW10      29.92S
PONTIAC        CLOUDY    45  41  86 SW9       29.92S
PORT HOPE        N/A     42  40  92 VRB5      29.86S
PORT HURON     CLOUDY    43  41  93 SW7       29.94R
TRI CITIES     CLOUDY    45  42  89 SW13G23   29.87S FOG
TROY           LGT RAIN  46  43  87 SW8       29.95S
SAGINAW HB     CLOUDY    43  43 100 SW13      29.87R FOG
$$
MIZ043>046-050>051-056>058-064>065-071>073-077>080-230200-
SOUTHWEST LOWER MICHIGAN

CITY           SKY/WX    TMP DP  RH WIND       PRES   REMARKS
BATTLE CREEK   CLOUDY    46  43  89 SW14      29.91F FOG
BENTON HARBOR  CLOUDY    48  45  89 S10       29.89F
BIG RAPIDS     FOG       37  37 100 SE5       29.83R VSB 1/4 WCI  33
COLDWATER      CLOUDY    49  46  90 SW14G21   29.93S
FREMONT        CLOUDY    42  41  97 SW8       29.84R FOG
HOLLAND        CLOUDY    51  46  83 SW20G28   29.87S
GRAND RAPIDS   CLOUDY    44  42  93 SW15      29.87S FOG
IONIA          CLOUDY    42  42  99 SW12      29.87S FOG
KALAMAZOO      CLOUDY    43  41  93 S10       29.91F FOG
LUDINGTON      CLOUDY    44  43  95 SW16G24   29.82S FOG
MARSHALL       CLOUDY    45  45 100 SW9       29.91S
MOUNT PLEASANT CLOUDY    41  40  98 S7        29.84S FOG
MUSKEGON       CLOUDY    48  44  86 SW15G23   29.85S
SOUTH HAVEN    CLOUDY    49  46  91 SW7       29.89S
$$
MIZ016>042-230200-
NORTHERN LOWER MICHIGAN

CITY           SKY/WX    TMP DP  RH WIND       PRES   REMARKS
ALPENA         CLOUDY    38  37  97 S9        29.80S WCI  31
BEAVER ISLAND  CLOUDY    40  37  92 W14       29.77R FOG     WCI  32
BELLAIRE       CLOUDY    40  38  95 SW3       29.80R FOG
CADILLAC       FOG       37  37  99 SW10      29.79S VSB 1/4 WCI  30
CHARLEVOIX     CLOUDY    40  40 100 SW6       29.81R FOG
FRANKFORT      CLOUDY    43  42  97 SW10G18   29.80R FOG
GAYLORD        FOG       36  36 100 SW9       29.77S VSB 1/2 WCI  29
GRAYLING       CLOUDY    38  38 100 SW5       29.81R FOG     WCI  34
HARBOR SPRINGS FOG       39  38  99 SW7       29.78R VSB 1/2 WCI  34
HOUGHTON LAKE  FOG       37  37 100 S9        29.82R VSB 3/4 WCI  30
MANISTEE       CLOUDY    45  41  87 SW10      29.82R
OSCODA         DRZL/FOG  38  38 100 SW8       29.83S VSB 1   WCI  32
PELLSTON       CLOUDY    39  38  96 SW7       29.78R FOG     WCI  34
ROGERS CITY    CLOUDY    38  38  99 CALM      29.80R
TRAVERSE CITY  FOG       39  38  96 VRB5      29.79R VSB 1
$$
MIZ007>008-015-230200-
EASTERN UPPER MICHIGAN

CITY           SKY/WX    TMP DP  RH WIND       PRES   REMARKS
KINROSS        CLOUDY    36  34  93 CALM      29.76R
MACKINAC ISLAN CLOUDY    39  38  97 W9        29.76R FOG     WCI  33
NEWBERRY       CLOUDY    33  31  93 SW6       29.75R WCI  27
S. S. MARIE    CLOUDY    35  31  85 SW5       29.75R WCI  31
MUNISING         N/A     29  26  89 S6        29.73R WCI  23
$$
MIZ004>006-011>014-085-230200-
CENTRAL UPPER MICHIGAN

CITY           SKY/WX    TMP DP  RH WIND       PRES   REMARKS
MANISTIQUE     CLEAR     34  33  94 SW5       29.75S FOG     WCI  30
ESCANABA       CLOUDY    36  32  87 S5        29.75S WCI  32
MENOMINEE      CLOUDY    37  34  87 SW5       29.75F WCI  34
SAWYER-GWINN   CLOUDY    32  30  93 SW3       29.71R
$$
MIZ001>003-009>011-084-230200-
WESTERN UPPER MICHIGAN

CITY           SKY/WX    TMP DP  RH WIND       PRES   REMARKS
IRON MOUNTAIN  CLOUDY    35  30  82 SW6       29.70F WCI  30
HOUGHTON       CLOUDY    35  30  82 S6        29.66F WCI  30
COPPER HARBOR    N/A     37  31  78 SW6       29.68F WCI  32
IRONWOOD       CLOUDY    34  30  86 SE7       29.62F WCI  28
$$

ABBREVIATIONS USED IN REMARKS
   TC - TEMPERATURE IN CELSIUS
  WCI - WIND CHILL INDEX
   HX - HEAT INDEX
  VSB - VISIBILITY




USA.gov is the U.S. government's official web portal to all federal, state and local government web resources and services.